Weather History for KGED - December, 2013

Change the Weather History Date:

Saturday, December 28, 2013

  Actual Average Record
Temperature  
Mean Temperature 45 °F 36 °F  
Max Temperature 57 °F 45 °F 72 °F (2008)
Min Temperature 32 °F 28 °F 9 °F (1950)
Degree Days  
Heating Degree Days 20 29  
Month to date heating degree days 633 710  
Since 1 July heating degree days 1436 1494  
Cooling Degree Days 0 0  
Month to date cooling degree days 4 0  
Year to date cooling degree days 1400 1196  
Moisture  
Dew Point 28 °F    
Average Humidity 54    
Maximum Humidity 82    
Minimum Humidity 26    
Precipitation  
Precipitation 0.00 in 0.09 in 0.36 in (1957)
Month to date precipitation 3.76 3.06  
Year to date precipitation 53.32 43.54  
Sea Level Pressure  
Sea Level Pressure 30.27 in    
Wind  
Wind Speed 8 mph (SW)    
Max Wind Speed 20 mph    
Max Gust Speed 26 mph    
Visibility 10 miles    
Events      
T = Trace of Precipitation, MM = Missing Value Source: NWS Daily Summary

Daily Weather History Graph

Daily Weather History Graph

Search for Another Location

Airport or City:

Trip Planner

Search our weather history database for the weather conditions in past years. The results will help you decide how hot, cold, wet, or windy it might be!

Date:

Astronomy

Dec. 28, 2013 Rise Set
Actual Time 7:18 AM EST 4:47 PM EST
Civil Twilight 6:48 AM EST 5:17 PM EST
Nautical Twilight 6:15 AM EST 5:50 PM EST
Astronomical Twilight 5:43 AM EST 6:23 PM EST
Moon 2:54 AM EST (12/28) 1:35 PM EST (12/28)
Length of Visible Light 10h 28m
Length of Day
9h 29m
Waning Crescent, 19% of the Moon is Illuminated
Dec 28
Waning Crescent
Jan 1
New
Jan 7
First Quarter
Jan 15
Full
Jan 24
Last Quarter

Hourly Weather History & Observations

Time (EST) Temp. Windchill Dew Point Humidity Pressure Visibility Wind Dir Wind Speed Gust Speed Precip Events Conditions
12:54 AM 35.1 °F 29.3 °F 28.9 °F 78% 30.35 in 10.0 mi SW 6.9 mph - N/A   Clear
1:54 AM 35.1 °F 28.6 °F 30.0 °F 82% 30.35 in 10.0 mi SW 8.1 mph - N/A   Clear
2:54 AM 35.1 °F 31.0 °F 28.9 °F 78% 30.34 in 10.0 mi SSW 4.6 mph - N/A   Clear
3:54 AM 33.1 °F 27.7 °F 28.0 °F 82% 30.32 in 10.0 mi SSW 5.8 mph - N/A   Clear
4:54 AM 35.1 °F 28.6 °F 28.0 °F 76% 30.32 in 10.0 mi SW 8.1 mph - N/A   Clear
5:54 AM 34.0 °F 28.0 °F 28.0 °F 79% 30.32 in 10.0 mi SSW 6.9 mph - N/A   Clear
6:54 AM 34.0 °F 28.8 °F 27.0 °F 75% 30.33 in 10.0 mi SW 5.8 mph - N/A   Clear
7:54 AM 34.0 °F 28.8 °F 28.0 °F 79% 30.33 in 10.0 mi SSW 5.8 mph - N/A   Clear
8:54 AM 39.9 °F 34.5 °F 30.0 °F 68% 30.34 in 10.0 mi SW 8.1 mph - N/A   Clear
9:54 AM 44.1 °F 38.1 °F 30.0 °F 58% 30.34 in 10.0 mi SW 11.5 mph - N/A   Clear
10:54 AM 48.9 °F - 28.9 °F 46% 30.32 in 10.0 mi SW 9.2 mph - N/A   Clear
11:54 AM 54.0 °F - 28.9 °F 38% 30.27 in 10.0 mi WSW 9.2 mph - N/A   Clear
12:54 PM 55.9 °F - 21.9 °F 27% 30.24 in 10.0 mi WSW 15.0 mph 24.2 mph N/A   Clear
1:54 PM 57.0 °F - 25.0 °F 29% 30.22 in 10.0 mi SW 16.1 mph - N/A   Clear
2:54 PM 55.0 °F - 24.1 °F 30% 30.21 in 10.0 mi WSW 11.5 mph - N/A   Clear
3:54 PM 53.1 °F - 28.0 °F 38% 30.20 in 10.0 mi SSW 9.2 mph - N/A   Clear
4:54 PM 50.0 °F - 27.0 °F 41% 30.22 in 10.0 mi SW 9.2 mph - N/A   Clear
5:54 PM 46.0 °F 43.1 °F 28.0 °F 50% 30.22 in 10.0 mi SSW 5.8 mph - N/A   Clear
6:54 PM 43.0 °F 38.8 °F 28.9 °F 58% 30.22 in 10.0 mi SW 6.9 mph - N/A   Clear
7:54 PM 42.1 °F 38.4 °F 28.9 °F 60% 30.20 in 10.0 mi SSW 5.8 mph - N/A   Clear
8:54 PM 45.0 °F 43.5 °F 28.9 °F 53% 30.19 in 10.0 mi SSW 3.5 mph - N/A   Clear
9:54 PM 44.1 °F 40.8 °F 30.0 °F 58% 30.18 in 10.0 mi SSW 5.8 mph - N/A   Clear
10:54 PM 45.0 °F 41.8 °F 30.0 °F 56% 30.18 in 10.0 mi SW 5.8 mph - N/A   Clear
11:54 PM 46.0 °F 42.5 °F 30.0 °F 54% 30.16 in 10.0 mi SSW 6.9 mph - N/A   Clear